KD7KCN-5 Weather Reports


Display with metric or nautical units.
time (UTC)temp
F
wind
direction
speed
MPH
gust
MPH
rain 1hr
in
rain 24hr
in
rain mn
in
humidity
%
barometer
mb
20260903094539 64 0 0.0 10.0 0.00 0.00 0.00 17 1015.6
20260903092540 65 141 3.0 8.0 0.00 0.00 0.00 16 1015.6
20260903084539 66 196 4.0 10.0 0.00 0.00 0.00 16 1015.7
20260903083539 66 155 5.0 13.0 0.00 0.00 0.00 15 1015.7
20260903082539 66 186 8.0 13.0 0.00 0.00 0.00 15 1015.7
20260903080539 67 158 7.0 14.0 0.00 0.00 0.00 15 1015.6
20260903075540 67 178 11.0 16.0 0.00 0.00 0.00 14 1015.7
20260903074539 67 203 9.0 12.0 0.00 0.00 0.00 14 1015.6
20260903073540 67 184 12.0 16.0 0.00 0.00 0.00 14 1015.7
20260903072539 67 168 10.0 14.0 0.00 0.00 0.00 14 1015.7
20260903071539 67 185 7.0 13.0 0.00 0.00 0.00 13 1015.7
20260903070540 68 133 7.0 12.0 0.00 0.00 0.00 12 1015.7
20260903065539 68 146 10.0 15.0 0.00 0.00 0.00 12 1015.6
20260903064542 69 196 12.0 16.0 0.00 0.00 0.00 12 1015.6
20260903063540 69 148 13.0 19.0 0.00 0.00 0.00 12 1015.5
20260903062540 69 145 11.0 16.0 0.00 0.00 0.00 12 1015.3
20260903061540 69 171 6.0 16.0 0.00 0.00 0.00 12 1015.3
20260903060541 69 211 7.0 14.0 0.00 0.00 0.00 12 1015.3
20260903055541 69 181 11.0 15.0 0.00 0.00 0.00 11 1015.3
20260903054542 70 169 11.0 21.0 0.00 0.00 0.00 11 1015.2
20260903052541 70 160 10.0 17.0 0.00 0.00 0.00 11 1015.3
20260903050540 71 148 9.0 16.0 0.00 0.00 0.00 11 1015.4
20260903045540 71 152 6.0 19.0 0.00 0.00 0.00 11 1015.5
20260903044540 71 194 8.0 15.0 0.00 0.00 0.00 10 1015.6
20260903043540 71 185 4.0 17.0 0.00 0.00 0.00 10 1015.7
20260903042540 71 199 11.0 17.0 0.00 0.00 0.00 10 1015.6
20260903041541 71 237 8.0 17.0 0.00 0.00 0.00 11 1015.4
20260903040540 70 210 5.0 10.0 0.00 0.00 0.00 11 1015.4
20260903034540 71 212 2.0 13.0 0.00 0.00 0.00 10 1015.2
20260903033540 71 156 10.0 14.0 0.00 0.00 0.00 10 1015.0
20260903032540 71 158 5.0 12.0 0.00 0.00 0.00 10 1015.0
20260903031540 71 187 7.0 14.0 0.00 0.00 0.00 10 1014.8
20260903030540 71 186 10.0 14.0 0.00 0.00 0.00 9 1014.8
20260903024541 72 196 6.0 14.0 0.00 0.00 0.00 10 1014.5
20260903022541 73 221 5.0 8.0 0.00 0.00 0.00 10 1014.3
20260903021541 74 183 5.0 16.0 0.00 0.00 0.00 10 1014.4
20260903020541 74 210 13.0 23.0 0.00 0.00 0.00 10 1014.3
20260903015541 74 148 8.0 24.0 0.00 0.00 0.00 9 1014.3
20260903014541 74 207 13.0 22.0 0.00 0.00 0.00 9 1014.1
20260903005541 76 148 15.0 30.0 0.00 0.00 0.00 8 1014.0
20260903004540 77 139 17.0 30.0 0.00 0.00 0.00 9 1013.9
20260903003540 77 206 10.0 21.0 0.00 0.00 0.00 9 1014.0
20260903002541 77 153 15.0 33.0 0.00 0.00 0.00 9 1014.0
20260903000541 78 117 12.0 33.0 0.00 0.00 0.00 10 1013.9
20260902235541 78 130 17.0 27.0 0.00 0.00 0.00 9 1013.9
20260902234541 78 130 17.0 27.0 0.00 0.00 0.00 9 1013.8
20260902224541 78 237 15.0 31.0 0.00 0.00 0.00 9 1014.3
20260902222541 78 139 20.0 37.0 0.00 0.00 0.00 9 1014.1
20260902221541 77 193 15.0 29.0 0.00 0.00 0.00 9 1014.5
20260902214542 78 143 21.0 35.0 0.00 0.00 0.00 9 1014.6
20260902211541 78 143 19.0 37.0 0.00 0.00 0.00 10 1015.0
20260902210541 78 147 13.0 30.0 0.00 0.00 0.00 10 1015.3
20260902204542 77 135 24.0 36.0 0.00 0.00 0.00 11 1015.1
20260902201541 76 170 10.0 35.0 0.00 0.00 0.00 12 1015.6
20260902200541 75 131 18.0 39.0 0.00 0.00 0.00 12 1015.6
20260902195541 77 151 22.0 35.0 0.00 0.00 0.00 12 1015.8
20260902193541 75 138 23.0 34.0 0.00 0.00 0.00 14 1016.0
20260902192543 75 135 15.0 31.0 0.00 0.00 0.00 14 1016.2
20260902184541 74 142 23.0 33.0 0.00 0.00 0.00 16 1016.4
20260902183541 73 142 21.0 36.0 0.00 0.00 0.00 17 1016.5
20260902182720 73 129 12.0 34.0 0.00 0.00 0.00 16 1016.7
20260902182541 73 129 12.0 34.0 0.00 0.00 0.00 16 1016.7
20260902180541 74 130 20.0 34.0 0.00 0.00 0.00 16 1016.8
20260902165541 71 156 23.0 39.0 0.00 0.00 0.00 17 1016.9
20260902163541 70 128 28.0 40.0 0.00 0.00 0.00 18 1016.8
20260902161541 70 139 21.0 35.0 0.00 0.00 0.00 20 1016.9
20260902160636 70 142 20.0 32.0 0.00 0.00 0.00 21 1016.9
20260902160541 70 142 20.0 32.0 0.00 0.00 0.00 21 1016.9
20260902154800 69 125 15.0 33.0 0.00 0.00 0.00 24 1016.9
20260902154541 69 144 17.0 33.0 0.00 0.00 0.00 23 1016.9
20260902153541 69 125 15.0 33.0 0.00 0.00 0.00 24 1016.9
20260902151541 68 147 19.0 34.0 0.00 0.00 0.00 24 1017.0
20260902150541 68 128 17.0 28.0 0.00 0.00 0.00 23 1017.0
20260902145541 68 127 11.0 24.0 0.00 0.00 0.00 23 1017.1
20260902144542 67 116 16.0 25.0 0.00 0.00 0.00 23 1017.1
20260902143541 67 125 13.0 19.0 0.00 0.00 0.00 23 1017.1
20260902142543 66 114 13.0 17.0 0.00 0.00 0.00 22 1016.9
20260902141542 65 115 11.0 18.0 0.00 0.00 0.00 23 1017.0
20260902140542 64 122 10.0 14.0 0.00 0.00 0.00 23 1017.0
20260902140142 63 123 12.0 15.0 0.00 0.00 0.00 23 1017.0
20260902135542 63 123 12.0 15.0 0.00 0.00 0.00 23 1017.0
20260902134542 63 120 11.0 15.0 0.00 0.00 0.00 23 1016.9
20260902133542 63 122 8.0 16.0 0.00 0.00 0.00 23 1016.8
20260902132542 63 123 9.0 13.0 0.00 0.00 0.00 23 1016.6
20260902131542 63 124 11.0 19.0 0.00 0.00 0.00 23 1016.4
20260902130542 64 130 6.0 16.0 0.00 0.00 0.00 22 1016.4
20260902125542 65 141 7.0 29.0 0.00 0.00 0.00 22 1016.3
20260902124542 64 136 8.0 22.0 0.00 0.00 0.00 22 1016.2
20260902123542 65 131 12.0 27.0 0.00 0.00 0.00 22 1016.3
20260902122542 65 194 11.0 18.0 0.00 0.00 0.00 23 1016.2
20260902120542 65 119 5.0 17.0 0.00 0.00 0.00 24 1016.3
20260902115542 65 124 8.0 16.0 0.00 0.00 0.00 24 1016.2
20260902114542 66 138 3.0 14.0 0.00 0.00 0.00 24 1016.1
20260902113542 66 115 7.0 17.0 0.00 0.00 0.00 24 1016.0
20260902112543 67 135 8.0 24.0 0.00 0.00 0.00 24 1016.1
20260902110542 67 145 7.0 24.0 0.00 0.00 0.00 24 1016.0
20260902103543 68 157 5.0 25.0 0.00 0.00 0.00 24 1015.1